Wetterdaten Frühling 2018

Datum T max T min Regen
01.03.2018 -0.7 °C -8.5 °C 0 mm
02.03.2018 0.4 °C -5.7 °C 0 mm
03.03.2018 9.3 °C -5.9 °C 0.4 mm
04.03.2018 13.4 °C -0.3 °C 0.2 mm
05.03.2018 13.3 °C 0.6 °C 0 mm
06.03.2018 9.6 °C -2.1 °C 0 mm
07.03.2018 10.4 °C 1.6 °C 0 mm
08.03.2018 13.4 °C 2.3 °C 0.4 mm
09.03.2018 11 °C 3.9 °C 1.6 mm
10.03.2018 12 °C 6.7 °C 3 mm
11.03.2018 15.7 °C 5.1 °C 0.6 mm
12.03.2018 13.6 °C 7.8 °C 1.4 mm
13.03.2018 10.2 °C 4.7 °C 2.4 mm
14.03.2018 11.5 °C 3.3 °C 0.2 mm
15.03.2018 11.9 °C 0.1 °C 0 mm
16.03.2018 13.3 °C 4 °C 0 mm
17.03.2018 4.6 °C -2.4 °C 0.4 mm
18.03.2018 -0.3 °C -3.4 °C 4.4 mm
19.03.2018 0.8 °C -2.9 °C 0 mm
20.03.2018 1.8 °C -5.3 °C 0 mm
21.03.2018 5.3 °C -4.8 °C 0.4 mm
22.03.2018 4.2 °C -5.4 °C 2.4 mm
23.03.2018 7.2 °C 1.5 °C 2 mm
24.03.2018 11.7 °C -1.4 °C 0 mm
25.03.2018 13.6 °C -1.4 °C 0 mm
26.03.2018 10.1 °C 0.3 °C 0.2 mm
27.03.2018 12.6 °C 0.5 °C 0.2 mm
28.03.2018 12.9 °C 6.8 °C 4.6 mm
29.03.2018 9.8 °C 3.1 °C 0 mm
30.03.2018 15.5 °C 0.3 °C 5.8 mm
31.03.2018 12.7 °C 5.3 °C 0.2 mm
01.04.2018 8.9 °C 4.4 °C 1 mm
02.04.2018 16.7 °C 0.8 °C 0 mm
03.04.2018 21.8 °C 9.7 °C 0 mm
04.04.2018 21.2 °C 10.1 °C 0.6 mm
05.04.2018 14.1 °C 6.1 °C 0 mm
06.04.2018 15.8 °C -0.1 °C 0 mm
07.04.2018 23.3 °C 3.2 °C 0 mm
08.04.2018 23.8 °C 6 °C 0 mm
09.04.2018 21.4 °C 8.2 °C 0 mm
10.04.2018 20.6 °C 7.4 °C 6.8 mm
11.04.2018 18.6 °C 4.5 °C 0.2 mm
12.04.2018 20.4 °C 8.3 °C 0 mm
13.04.2018 12 °C 6.3 °C 4.2 mm
14.04.2018 19.8 °C 3.8 °C 0.2 mm
15.04.2018 20.1 °C 5.8 °C 0 mm
16.04.2018 20.2 °C 12.1 °C 0.2 mm
17.04.2018 22.5 °C 6.7 °C 0 mm
18.04.2018 24.6 °C 7.7 °C 0 mm
19.04.2018 26.4 °C 8.6 °C 0 mm
20.04.2018 27.2 °C 7.6 °C 0 mm
21.04.2018 26.7 °C 9.2 °C 0 mm
22.04.2018 27.8 °C 11.3 °C 0 mm
23.04.2018 20.4 °C 14.1 °C 2 mm
24.04.2018 21.3 °C 9.3 °C 0 mm
25.04.2018 20.4 °C 9.6 °C 0 mm
26.04.2018 15.3 °C 8.6 °C 0.4 mm
27.04.2018 21.5 °C 3.9 °C 0 mm
28.04.2018 19.2 °C 10.9 °C 0.2 mm
29.04.2018 26.3 °C 9.2 °C 5.2 mm
30.04.2018 19.8 °C 10.6 °C 1 mm
01.05.2018 14.4 °C 5.9 °C 0 mm
02.05.2018 16.7 °C 3.8 °C 0 mm
03.05.2018 18.2 °C 9.8 °C 0 mm
04.05.2018 21.9 °C 9.9 °C 0 mm
05.05.2018 24.2 °C 8.8 °C 0 mm
06.05.2018 23.5 °C 11.1 °C 0 mm
07.05.2018 25 °C 8.4 °C 0 mm
08.05.2018 26.1 °C 8.7 °C 0 mm
09.05.2018 24.4 °C 9.3 °C 0 mm
10.05.2018 19.6 °C 10.4 °C 1 mm
11.05.2018 20.1 °C 8.2 °C 0 mm
12.05.2018 26.4 °C 9.2 °C 0 mm
13.05.2018 18.2 °C 11.6 °C 5 mm
14.05.2018 15.2 °C 11.4 °C 8.4 mm
15.05.2018 21.6 °C 11.2 °C 0.6 mm
16.05.2018 16.3 °C 11.4 °C 12.8 mm
17.05.2018 16.9 °C 11.7 °C 0.2 mm
18.05.2018 20.8 °C 6.6 °C 0 mm
19.05.2018 20.4 °C 7.7 °C 0 mm
20.05.2018 18.8 °C 12 °C 12.2 mm
21.05.2018 24.8 °C 10.8 °C 0 mm
22.05.2018 23.9 °C 11.3 °C 0 mm
23.05.2018 24.6 °C 13.9 °C 1 mm
24.05.2018 22.3 °C 12.7 °C 1.2 mm
25.05.2018 26.9 °C 12.6 °C 0 mm
26.05.2018 28.8 °C 12.9 °C 0 mm
27.05.2018 26.5 °C 15.7 °C 0 mm
28.05.2018 29.7 °C 15.4 °C 0 mm
29.05.2018 23.6 °C 15.1 °C 0 mm
30.05.2018 30 °C 13.7 °C 0 mm
31.05.2018 27.2 °C 16.6 °C 0 mm
 Hinweis zur Datenqualität
∅ Temperatur

11.7 °C

Abweichung vom Mittel

+1.6 °C

Niederschlag

95.2 mm

Abweichung vom Mittel

54 %

30 °C

Lufttemperatur
30.05.2018

1031 hPa

Luftdruck
18.04.2018

33.8 km/h

Windböen
10.04.2018

95.2 mm

Niederschlag
 

-8.5 °C

Lufttemperatur
01.03.2018

-8 °C

Bodentemperatur 5cm
01.03.2018

990 hPa

Luftdruck
06.03.2018
 Hinweis zur Datenqualität